THORAD DELTA 1 DEB, 8162

Orbit data source: Space-Track

THORAD DELTA 1 DEB, 8162 is space debris in SSO originally from a launch on Fri, 15 Nov 1974 UTC launched from the Air Force Western Test Range (AFWTR). Debris objects in space refer to the collection of defunct objects orbiting the Earth. Examples of debris include non-operational satellites, rocket bodies, and fragments generated from explosions, collisions, or faulty payload assembly.

Loading next visibility...
Identifier
8162, 1974-089AC
Orbit
SSO
Country
Flag of USUS
Related business
Manufacturer
Unknown
Mission
Spacecraft
Bus & Motor
Unknown
Mass
Unknown
Launch date (UTC)
1974-11-15 (51 years ago)
Launch vehicle
Unknown
Launch site
Air Force Western Test Range (AFWTR)
Object type
Payload
Rocket body
Debris
Shape & HBR
Unknown
Radar Cross Section
Small (<0.1 m²)

Expand to show TLE details & history
Last TLE update: 1 day ago

TLE from 1 day ago
0 THORAD DELTA 1 DEB
1 08162U 74089AC  25242.28078767  .00001935  00000-0  12360-1 0  9996
2 08162 100.7951 132.3429 0164701  52.7650  74.2477 12.49931650283475
Epoch: 2025-08-30T06:44Z
TLE epoch observation values (Epoch: 2025-08-30T06:44:20.054Z)
Latitude
50.01173°
Longitude
-114.3841°
Altitude
1,439.459 km
Speed
7.162 km/s
True Right ascension
21h 41m 40s
True Declination
49° 51' 26"
Sunlit
Object was in daylight at epoch
Visualization orbit readout
Latitude
Unknown
Longitude
Unknown
Altitude
Unknown
Speed
Unknown
Apparent Right ascension
Unknown
Apparent Declination
Unknown
Sunlit
N/A
Visualization observer readout
Local Sidereal Time
22:57:27
Azimuth
Unknown
Elevation
Unknown
Doppler factor
Unknown
Orbital elements
Apogee altitude
1,591.405 km
Perigee altitude
1,333.141 km
Semi-major axis
7,840.41 km
Eccentricity
0.01647
Inclination
100.7951°
RAAN
132.3429°
Arg. of periapsis
52.765°
True anomaly
76.07405°
Mean anomaly
74.2477°
Eccentric anomaly
75.15989°
Mean motion
3.12633 °/min
Orbital period
115.15 mins
BSTAR
0.01236
Loading maneuver chart data...
Computing Atmospheric mass density...
Loading historical data...
Loading historical data...
Loading historical data...
Loading historical data...
Loading historical data...
Loading historical data...
Loading historical data...

Documentation

Showing up to 5 results
|